Location: Unspecified
(0.0000°N, 0.0000°E)
Time: 10:50:18
(UTC+00:00)

Vanguard 3 - Pass Details

Date: 03 October 2023
Orbit: 507 x 3241 km, 33.3° (Epoch: 06 December)

Event Time Altitude Azimuth Distance (km) Brightness Sun altitude
Rises 17:59:18 0° 293° (WNW) 6,745 13.1 -2.6°
Drops below altitude 10° 18:11:15 10° 329° (NNW) 4,858 11.5 -5.5°
Maximum altitude 18:12:37 10° 335° (NNW) 4,714 11.3 -5.9°
Sets 18:22:21 0° 21° (NNE) 4,660 10.8 -8.3°
